Date String (YYYY-MM-DD hh:mm:ss) UTC,Instrument flags,absolute air pressure of the measurement (hPa),sample flow rate (lpm),inlet stack bypass flow (lpm),air temperature of the measurement (°C),ambient temperature measured by the external sensor (°C),aerosol sample conditioner tube jacket temperature (°C),OPC LED temperature (°C),internal box temperature (°C),relative humidity of the measurement (%),span deviation,mass concentration of particles derived from Lorenz-Mie calculation of OPC scattering (μg/m³),mass concentration of particles derived from Lorenz-Mie calculation of OPC scattering (μg/m³),mass concentration of particles derived from Lorenz-Mie calculation of OPC scattering (μg/m³)
DateTimeUTC,F1_M11,P_M11,Q1_M11,Q2_M11,T1_M11,T2_M11,T3_M11,T4_M11,T5_M11,U1_M11,ZSPAN_M11,X2_M11,X0_M11,X1_M11
2023-11-19 10:00:00,SystemResetWarning,0822.6,5.00,000.00,023.8,022.5,000.0,032.3,025.0,14.8,0000.0,0000.76,0002.13,0000.58
2023-11-19 10:01:00,SystemResetWarning,0822.7,5.00,000.00,023.8,022.5,000.0,032.3,025.0,14.8,0000.0,0000.80,0002.23,0000.58
2023-11-19 10:02:00,SystemResetWarning,0822.6,5.00,000.00,023.8,022.5,000.0,032.2,025.0,14.9,0000.0,0000.81,0002.33,0000.59
2023-11-19 10:03:00,SystemResetWarning,0822.8,5.00,000.00,023.8,022.5,000.0,032.2,025.0,14.8,0000.0,0000.83,0002.51,0000.61
2023-11-19 10:04:00,SystemResetWarning,0822.7,5.01,000.00,023.7,022.5,000.0,032.2,025.0,14.8,0000.0,0000.83,0002.50,0000.62
2023-11-19 10:05:00,SystemResetWarning,0822.7,5.00,000.00,023.7,022.5,000.0,032.2,025.0,14.9,0000.0,0000.82,0002.44,0000.63
2023-11-19 10:06:00,SystemResetWarning,0822.8,4.99,000.00,023.7,022.5,000.0,032.2,025.0,14.8,0000.0,0000.84,0002.46,0000.64
2023-11-19 10:07:00,SystemResetWarning,0822.9,5.00,000.00,023.7,022.5,000.0,032.2,025.0,14.8,0000.0,0000.83,0002.54,0000.65
2023-11-19 10:08:00,SystemResetWarning,0822.7,5.02,000.00,023.7,022.5,000.0,032.2,025.0,14.8,0000.0,0000.82,0001.87,0000.65
2023-11-19 10:09:00,SystemResetWarning,0822.6,5.00,000.00,023.7,022.5,000.0,032.2,025.0,14.7,0000.0,0000.84,0001.67,0000.64
2023-11-19 10:10:00,SystemResetWarning,0822.9,4.99,000.00,023.7,022.5,000.0,032.2,025.0,14.6,0000.0,0000.83,0001.73,0000.64
2023-11-19 10:11:00,SystemResetWarning,0822.7,5.01,000.00,023.7,022.5,000.0,032.2,025.0,14.6,0000.0,0000.80,0001.69,0000.64
2023-11-19 10:12:00,SystemResetWarning,0822.9,5.02,000.00,023.7,022.5,000.0,032.2,025.0,14.6,0000.0,0000.78,0001.63,0000.63
2023-11-19 10:13:00,SystemResetWarning,0823.1,5.00,000.00,023.7,022.5,000.0,032.1,025.0,14.5,0000.0,0000.77,0001.61,0000.63
2023-11-19 10:14:00,SystemResetWarning,0822.9,5.00,000.00,023.7,022.5,000.0,032.1,025.0,14.6,0000.0,0000.76,0001.41,0000.63
2023-11-19 10:15:00,SystemResetWarning,0822.6,5.00,000.00,023.7,022.5,000.0,032.1,025.0,14.6,0000.0,0000.75,0001.75,0000.62
2023-11-19 10:16:00,SystemResetWarning,0822.7,5.00,000.00,023.7,022.5,000.0,032.1,025.0,14.5,0000.0,0000.76,0001.77,0000.62
2023-11-19 10:17:00,SystemResetWarning,0822.8,5.00,000.00,023.7,022.5,000.0,032.1,025.0,14.5,0000.0,0000.76,0001.80,0000.62
2023-11-19 10:18:00,SystemResetWarning,0822.4,5.00,000.00,023.7,022.6,000.0,032.1,025.0,14.5,0000.0,0000.76,0001.72,0000.61
2023-11-19 10:19:00,SystemResetWarning,0822.5,5.00,000.00,023.7,022.6,000.0,032.1,025.0,14.4,0000.0,0000.75,0001.69,0000.61
2023-11-19 10:20:00,SystemResetWarning,0822.7,5.00,000.00,023.7,022.5,000.0,032.1,025.0,14.4,0000.0,0000.73,0001.65,0000.61
2023-11-19 10:21:00,SystemResetWarning,0822.6,5.00,000.00,023.7,022.5,000.0,032.1,025.0,14.4,0000.0,0000.73,0001.62,0000.60
2023-11-19 10:22:00,SystemResetWarning,0822.4,5.01,000.00,023.7,022.5,000.0,032.1,024.9,14.3,0000.0,0000.74,0001.47,0000.60
2023-11-19 10:23:00,SystemResetWarning,0822.5,5.01,000.00,023.7,022.5,000.0,032.1,024.9,14.3,0000.0,0000.74,0001.44,0000.60
2023-11-19 10:24:00,SystemResetWarning,0822.4,5.00,000.00,023.7,022.5,000.0,032.1,024.9,14.2,0000.0,0000.74,0001.42,0000.61
2023-11-19 10:25:00,SystemResetWarning,0822.5,5.00,000.00,023.7,022.5,000.0,032.1,025.0,14.2,0000.0,0000.74,0001.38,0000.61
2023-11-19 10:26:00,SystemResetWarning,0822.4,5.00,000.00,023.6,022.5,000.0,032.1,024.9,14.3,0000.0,0000.75,0001.09,0000.60
2023-11-19 10:27:00,SystemResetWarning,0822.5,4.99,000.00,023.6,022.5,000.0,032.1,025.0,14.3,0000.0,0000.79,0001.16,0000.61
2023-11-19 10:28:00,SystemResetWarning,0822.4,5.00,000.00,023.6,022.5,000.0,032.1,025.0,14.1,0000.0,0000.80,0001.17,0000.62
2023-11-19 10:29:00,SystemResetWarning,0822.4,5.01,000.00,023.6,022.5,000.0,032.1,024.9,14.2,0000.0,0000.81,0001.21,0000.62
2023-11-19 10:30:00,SystemResetWarning,0822.4,5.00,000.00,023.6,022.5,000.0,032.1,024.9,14.0,0000.0,0000.82,0001.24,0000.62
2023-11-19 10:31:00,SystemResetWarning,0822.4,5.00,000.00,023.6,022.5,000.0,032.0,024.9,14.1,0000.0,0000.85,0001.33,0000.63
2023-11-19 10:32:00,SystemResetWarning,0822.4,5.00,000.00,023.6,022.5,000.0,032.0,024.9,14.1,0000.0,0000.85,0001.35,0000.63
2023-11-19 10:33:00,SystemResetWarning,0822.4,5.00,000.00,023.6,022.5,000.0,032.0,024.9,14.1,0000.0,0000.84,0001.31,0000.64
2023-11-19 10:34:00,SystemResetWarning,0822.4,5.00,000.00,023.6,022.6,000.0,032.0,025.0,14.0,0000.0,0000.85,0001.34,0000.64
2023-11-19 10:35:00,SystemResetWarning,0822.4,5.00,000.00,023.6,022.6,000.0,032.0,025.0,14.0,0000.0,0000.84,0001.36,0000.63
2023-11-19 10:36:00,SystemResetWarning,0822.5,5.00,000.00,023.6,022.6,000.0,032.0,025.0,14.1,0000.0,0000.84,0001.34,0000.63
2023-11-19 10:37:00,SystemResetWarning,0822.4,5.00,000.00,023.6,022.6,000.0,032.0,025.0,14.1,0000.0,0000.82,0001.27,0000.63
2023-11-19 10:38:00,SystemResetWarning,0822.4,5.00,000.00,023.6,022.6,000.0,032.0,025.0,14.1,0000.0,0000.79,0001.20,0000.62
2023-11-19 10:39:00,SystemResetWarning,0822.4,5.00,000.00,023.6,022.6,000.0,032.0,025.0,14.2,0000.0,0000.79,0001.20,0000.61
2023-11-19 10:40:00,SystemResetWarning,0822.4,5.00,000.00,023.7,022.6,000.0,032.0,025.0,14.2,0000.0,0000.79,0001.17,0000.61
2023-11-19 10:41:00,SystemResetWarning,0822.4,5.00,000.00,023.7,022.6,000.0,032.0,025.0,14.1,0000.0,0000.78,0001.16,0000.61
2023-11-19 10:42:00,SystemResetWarning,0822.4,5.00,000.00,023.7,022.6,000.0,032.0,025.0,14.0,0000.0,0000.77,0001.09,0000.61
2023-11-19 10:43:00,SystemResetWarning,0822.4,5.00,000.00,023.7,022.6,000.0,032.0,025.1,14.0,0000.0,0000.78,0001.10,0000.61
2023-11-19 10:44:00,SystemResetWarning,0822.4,5.00,000.00,023.7,022.6,000.0,032.0,025.0,14.0,0000.0,0000.79,0001.11,0000.61
2023-11-19 10:45:00,SystemResetWarning,0822.4,5.00,000.00,023.7,022.6,000.0,032.0,025.0,14.0,0000.0,0000.78,0001.10,0000.61
2023-11-19 10:46:00,SystemResetWarning,0822.4,5.00,000.00,023.7,022.6,000.0,032.0,025.0,14.1,0000.0,0000.76,0001.04,0000.60
2023-11-19 10:47:00,SystemResetWarning,0822.4,5.00,000.00,023.7,022.6,000.0,032.0,025.0,14.1,0000.0,0000.76,0001.05,0000.60
2023-11-19 10:48:00,SystemResetWarning,0822.4,5.00,000.00,023.7,022.6,000.0,032.0,025.0,14.1,0000.0,0000.75,0001.02,0000.60
2023-11-19 10:49:00,SystemResetWarning,0822.4,5.00,000.00,023.7,022.6,000.0,032.0,025.1,14.0,0000.0,0000.74,0000.99,0000.61
2023-11-19 10:50:00,SystemResetWarning,0822.4,5.00,000.00,023.7,022.6,000.0,032.0,025.1,14.0,0000.0,0000.72,0000.94,0000.60
2023-11-19 10:51:00,SystemResetWarning,0822.4,5.00,000.00,023.7,022.6,000.0,032.0,025.1,13.9,0000.0,0000.69,0000.88,0000.60
2023-11-19 10:52:00,SystemResetWarning,0822.4,5.00,000.00,023.7,022.7,000.0,032.0,025.1,14.0,0000.0,0000.69,0000.87,0000.60
2023-11-19 10:53:00,SystemResetWarning,0822.4,5.00,000.00,023.7,022.7,000.0,032.0,025.1,14.1,0000.0,0000.69,0000.88,0000.61
2023-11-19 10:54:00,SystemResetWarning,0822.4,5.00,000.00,023.7,022.7,000.0,032.0,025.1,14.0,0000.0,0000.68,0000.83,0000.61
2023-11-19 10:55:00,SystemResetWarning,0822.4,5.00,000.00,023.7,022.7,000.0,032.0,025.1,14.0,0000.0,0000.67,0000.82,0000.60
2023-11-19 10:56:00,SystemResetWarning,0822.4,5.00,000.00,023.7,022.7,000.0,032.0,025.1,14.0,0000.0,0000.66,0000.82,0000.60
2023-11-19 10:57:00,SystemResetWarning,0822.4,5.00,000.00,023.7,022.7,000.0,032.0,025.1,14.0,0000.0,0000.67,0000.83,0000.60
2023-11-19 10:58:00,SystemResetWarning,0822.4,5.00,000.00,023.8,022.7,000.0,032.0,025.1,14.0,0000.0,0000.68,0000.85,0000.61
2023-11-19 10:59:00,SystemResetWarning,0822.4,5.00,000.00,023.8,022.8,000.0,032.1,025.1,13.9,0000.0,0000.69,0000.87,0000.61
